• In Latvia
  • List of Countries
  • For 7 days
  • Water Temperature
  • Satellite Maps
  • Weather Map
  • Weather Widgets
  • user-avatar
    Login

    Hourly Weather Darwin

    Today, 20 August, Sunday

    Time Temperature Precipitation Wind Pressure Humidity
    00:00 +26°C° 0 mm 1 mps 759 mmHg 76%
    01:00 +26°C° 0 mm 1 mps 759 mmHg 74%
    02:00 +26°C° 0 mm 1 mps 759 mmHg 72%
    03:00 +25°C° 0 mm 1 mps 759 mmHg 80%
    04:00 +25°C° 0 mm 1 mps 759 mmHg 78%
    05:00 +25°C° 0 mm 2 mps 760 mmHg 77%
    06:00 +24°C° 0 mm 2 mps 760 mmHg 75%
    07:00 +26°C° 0 mm 3 mps 760 mmHg 62%
    08:00 +28°C° 0 mm 3 mps 760 mmHg 50%
    09:00 +31°C° 0 mm 2 mps 760 mmHg 41%
    10:00 +34°C° 0 mm 3 mps 760 mmHg 35%
    11:00 +36°C° 0 mm 4 mps 760 mmHg 29%
    12:00 +39°C° 0 mm 5 mps 759 mmHg 23%
    13:00 +39°C° 0 mm 5 mps 759 mmHg 23%
    14:00 +39°C° 0 mm 5 mps 758 mmHg 22%
    15:00 +40°C° 0 mm 5 mps 757 mmHg 22%
    16:00 +37°C° 0 mm 4 mps 757 mmHg 25%
    17:00 +36°C° 0 mm 4 mps 757 mmHg 29%
    18:00 +34°C° 0 mm 4 mps 757 mmHg 33%
    19:00 +31°C° 0 mm 3 mps 757 mmHg 40%
    20:00 +30°C° 0 mm 3 mps 758 mmHg 47%
    21:00 +28°C° 0 mm 2 mps 758 mmHg 55%
    22:00 +27°C° 0 mm 2 mps 758 mmHg 58%
    23:00 +27°C° 0 mm 1 mps 759 mmHg 61%

    Tomorrow, 21 August, Monday

    Time Temperature Precipitation Wind Pressure Humidity
    00:00 +26°C° 0 mm 1 mps 759 mmHg 65%
    01:00 +26°C° 0 mm 1 mps 759 mmHg 67%
    02:00 +26°C° 0 mm 1 mps 759 mmHg 69%
    03:00 +26°C° 0 mm 1 mps 759 mmHg 70%
    04:00 +25°C° 0 mm 1 mps 759 mmHg 74%
    05:00 +25°C° 0 mm 1 mps 759 mmHg 77%
    06:00 +24°C° 0 mm 1 mps 759 mmHg 80%
    07:00 +26°C° 0 mm 2 mps 759 mmHg 69%
    08:00 +28°C° 0 mm 2 mps 760 mmHg 58%
    09:00 +31°C° 0 mm 3 mps 760 mmHg 47%
    10:00 +34°C° 0 mm 3 mps 760 mmHg 36%
    11:00 +36°C° 0 mm 3 mps 759 mmHg 26%
    12:00 +38°C° 0 mm 3 mps 759 mmHg 16%
    13:00 +38°C° 0 mm 4 mps 758 mmHg 16%
    14:00 +40°C° 0 mm 4 mps 757 mmHg 16%
    15:00 +40°C° 0 mm 4 mps 757 mmHg 16%
    16:00 +37°C° 0 mm 4 mps 757 mmHg 22%
    17:00 +35°C° 0 mm 4 mps 757 mmHg 28%
    18:00 +33°C° 0 mm 4 mps 757 mmHg 34%
    19:00 +30°C° 0 mm 3 mps 758 mmHg 44%
    20:00 +29°C° 0 mm 3 mps 759 mmHg 54%
    21:00 +27°C° 0 mm 3 mps 759 mmHg 64%
    22:00 +27°C° 0 mm 3 mps 759 mmHg 67%
    23:00 +26°C° 0 mm 2 mps 759 mmHg 69%

    Day after tomorrow, 22 August, Tuesday

    Time Temperature Precipitation Wind Pressure Humidity
    00:00 +26°C° 0 mm 2 mps 759 mmHg 72%
    01:00 +26°C° 0 mm 2 mps 759 mmHg 74%
    02:00 +26°C° 0 mm 3 mps 759 mmHg 75%
    03:00 +26°C° 0 mm 3 mps 759 mmHg 77%
    04:00 +25°C° 0.1 mm 3 mps 759 mmHg 80%
    05:00 +25°C° 0.1 mm 3 mps 759 mmHg 83%
    06:00 +25°C° 0.1 mm 4 mps 760 mmHg 86%
    07:00 +26°C° 0 mm 4 mps 760 mmHg 75%
    08:00 +28°C° 0 mm 4 mps 760 mmHg 64%
    09:00 +30°C° 0 mm 5 mps 761 mmHg 53%
    10:00 +33°C° 0 mm 5 mps 760 mmHg 43%
    11:00 +35°C° 0 mm 5 mps 760 mmHg 32%
    12:00 +38°C° 0 mm 6 mps 759 mmHg 22%
    13:00 +39°C° 0 mm 6 mps 759 mmHg 22%
    14:00 +39°C° 0 mm 6 mps 758 mmHg 21%
    15:00 +40°C° 0 mm 6 mps 757 mmHg 21%
    16:00 +38°C° 0 mm 6 mps 757 mmHg 28%
    17:00 +35°C° 0 mm 5 mps 758 mmHg 35%
    18:00 +33°C° 0 mm 5 mps 758 mmHg 42%
    19:00 +32°C° 0 mm 5 mps 759 mmHg 50%
    20:00 +29°C° 0 mm 5 mps 759 mmHg 57%
    21:00 +28°C° 0 mm 4 mps 760 mmHg 64%
    22:00 +28°C° 0 mm 4 mps 760 mmHg 68%
    23:00 +27°C° 0 mm 4 mps 760 mmHg 71%

    23 August, Wednesday

    Time Temperature Precipitation Wind Pressure Humidity
    00:00 +27°C° 0 mm 3 mps 761 mmHg 74%
    01:00 +26°C° 0 mm 3 mps 760 mmHg 77%
    02:00 +26°C° 0 mm 3 mps 760 mmHg 79%
    03:00 +25°C° 0 mm 3 mps 760 mmHg 82%
    04:00 +25°C° 0 mm 3 mps 760 mmHg 84%
    05:00 +24°C° 0 mm 3 mps 760 mmHg 86%
    06:00 +24°C° 0 mm 3 mps 761 mmHg 89%
    07:00 +26°C° 0 mm 4 mps 761 mmHg 72%
    08:00 +28°C° 0 mm 5 mps 761 mmHg 55%
    09:00 +30°C° 0 mm 5 mps 762 mmHg 38%
    10:00 +34°C° 0 mm 5 mps 761 mmHg 32%
    11:00 +36°C° 0 mm 6 mps 760 mmHg 26%
    12:00 +39°C° 0 mm 6 mps 760 mmHg 20%
    13:00 +40°C° 0 mm 6 mps 759 mmHg 20%
    14:00 +40°C° 0 mm 6 mps 758 mmHg 20%
    15:00 +41°C° 0 mm 5 mps 757 mmHg 21%
    16:00 +39°C° 0 mm 5 mps 758 mmHg 24%
    17:00 +37°C° 0 mm 5 mps 758 mmHg 28%
    18:00 +35°C° 0 mm 4 mps 758 mmHg 32%
    19:00 +33°C° 0 mm 4 mps 758 mmHg 41%
    20:00 +30°C° 0 mm 4 mps 759 mmHg 50%
    21:00 +28°C° 0 mm 3 mps 760 mmHg 60%
    22:00 +28°C° 0 mm 3 mps 760 mmHg 65%
    23:00 +27°C° 0 mm 3 mps 760 mmHg 71%

    24 August, Thursday

    Time Temperature Precipitation Wind Pressure Humidity
    00:00 +26°C° 0 mm 3 mps 760 mmHg 77%
    01:00 +26°C° 0 mm 3 mps 760 mmHg 80%
    02:00 +25°C° 0 mm 2 mps 760 mmHg 84%
    03:00 +25°C° 0 mm 2 mps 759 mmHg 88%
    04:00 +24°C° 0 mm 3 mps 760 mmHg 87%
    05:00 +24°C° 0 mm 3 mps 760 mmHg 86%
    06:00 +23°C° 0 mm 4 mps 760 mmHg 85%
    07:00 +26°C° 0 mm 4 mps 761 mmHg 67%
    08:00 +28°C° 0 mm 5 mps 761 mmHg 49%
    09:00 +32°C° 0 mm 5 mps 761 mmHg 31%
    10:00 +34°C° 0 mm 5 mps 761 mmHg 26%
    11:00 +36°C° 0 mm 5 mps 760 mmHg 21%
    12:00 +39°C° 0 mm 5 mps 759 mmHg 16%
    13:00 +40°C° 0 mm 5 mps 759 mmHg 17%
    14:00 +40°C° 0 mm 5 mps 758 mmHg 17%
    15:00 +41°C° 0 mm 5 mps 757 mmHg 18%
    16:00 +38°C° 0 mm 4 mps 757 mmHg 22%
    17:00 +36°C° 0 mm 4 mps 757 mmHg 26%
    18:00 +35°C° 0 mm 3 mps 757 mmHg 30%
    19:00 +33°C° 0 mm 3 mps 758 mmHg 38%
    20:00 +30°C° 0 mm 3 mps 759 mmHg 45%
    21:00 +28°C° 0 mm 2 mps 759 mmHg 53%
    22:00 +27°C° 0 mm 2 mps 759 mmHg 57%
    23:00 +27°C° 0 mm 2 mps 759 mmHg 61%

    25 August, Friday

    Time Temperature Precipitation Wind Pressure Humidity
    00:00 +26°C° 0 mm 2 mps 759 mmHg 65%
    01:00 +26°C° 0 mm 2 mps 759 mmHg 68%
    02:00 +25°C° 0 mm 2 mps 759 mmHg 71%
    03:00 +25°C° 0 mm 2 mps 759 mmHg 74%
    04:00 +24°C° 0 mm 3 mps 759 mmHg 68%
    05:00 +24°C° 0 mm 3 mps 759 mmHg 63%
    06:00 +22°C° 0 mm 4 mps 759 mmHg 57%
    07:00 +26°C° 0 mm 4 mps 760 mmHg 46%
    08:00 +28°C° 0 mm 5 mps 760 mmHg 35%
    09:00 +32°C° 0 mm 6 mps 760 mmHg 24%
    10:00 +34°C° 0 mm 6 mps 760 mmHg 22%
    11:00 +36°C° 0 mm 5 mps 759 mmHg 20%
    12:00 +39°C° 0 mm 5 mps 758 mmHg 18%
    13:00 +40°C° 0 mm 5 mps 758 mmHg 18%
    14:00 +40°C° 0 mm 5 mps 757 mmHg 19%
    15:00 +41°C° 0 mm 5 mps 756 mmHg 19%
    16:00 +38°C° 0 mm 4 mps 756 mmHg 23%
    17:00 +36°C° 0 mm 4 mps 757 mmHg 27%
    18:00 +35°C° 0 mm 4 mps 757 mmHg 30%
    19:00 +33°C° 0 mm 3 mps 757 mmHg 38%
    20:00 +30°C° 0 mm 3 mps 758 mmHg 46%
    21:00 +28°C° 0 mm 2 mps 759 mmHg 55%
    22:00 +27°C° 0 mm 2 mps 759 mmHg 58%
    23:00 +27°C° 0 mm 2 mps 759 mmHg 62%
    Show more